Find Starlink 6053

NORAD ID: 56466 Int'l Des: 2023-064 Owner: SPXS Country: US Constellation: starlink operational
LEOCIRCULAR

Current View

Loading 3D Globe...

About Starlink 6053

Starlink 6053 (NORAD 56466) is a starlink constellation satellite (v1.5) launched May 10, 2023 by SPXS of US. It operates in LEO, CIRCULAR orbit with a mass of 305.00 kg.

About Starlink 6053

Description loading...

Upcoming Passes

Passes for default location (London). Set your location on the main map for personalized predictions.

Altitude History

Loading altitude history...

Two-Line Element Set

1 56466U 23064U 26170.59418283 .00000052 00000-0 12181-4 0 9992
2 56466 69.9991 247.3828 0003501 269.5846 90.4912 14.98331186170507
Epoch: Jun 19, 2026 • Age: 24 hours

Current Status

Altitude 577.4 km
Velocity 7.57 km/s
Sub-Earth Point 33.42°N, 133.05°E
Launch Date May 10, 2023
Age 3.1 years
Type internet

Technical Details

Classification Payload
Mass 305.00 kg
Dry Mass 290.00 kg
Total Mass 305.00 kg
Length 0.20 m
Diameter 2.80 m
Span 9.00 m
Shape Box + pan
Manufacturer SPXS
Bus Type Starlink
Phase Status In Orbit
Owner/State SPXS/US

Most Searched